H1 CPF 2 NER 2023 11 17 9 321 01 glonass147 H2 2311401 9147 57517 2023 11 17 0 0 0 2023 11 20 23 45 0 900 1 1 0 0 0 1 H9 10 0 60265 0.00000 0 18330297.576 10986058.507 -13899044.712 10 0 60265 900.00000 0 19487727.744 12028814.267 -11201177.251 10 0 60265 1800.00000 0 20465151.606 12748646.629 -8285350.117 10 0 60265 2700.00000 0 21206408.946 13162007.436 -5208317.792 10 0 60265 3600.00000 0 21661870.511 13296965.934 -2029962.358 10 0 60265 4500.00000 0 21790623.176 13191778.737 1187879.753 10 0 60265 5400.00000 0 21562304.730 12893039.781 4382628.339 10 0 60265 6300.00000 0 20958510.457 12453490.079 7492182.846 10 0 60265 7200.00000 0 19973711.964 11929581.343 10456133.966 10 0 60265 8100.00000 0 18615649.528 11378897.752 13216939.227 10 0 60265 9000.00000 0 16905181.565 10857545.792 15721039.380 10 0 60265 9900.00000 0 14875597.754 10417622.997 17919893.889 10 0 60265 10800.00000 0 12571424.834 10104872.654 19770915.761 10 0 60265 11700.00000 0 10046775.115 9956623.172 21238288.345 10 0 60265 12600.00000 0 7363306.642 10000098.510 22293649.165 10 0 60265 13500.00000 0 4587879.644 10251170.115 22916628.696 10 0 60265 14400.00000 0 1790006.126 10713602.197 23095234.822 10 0 60265 15300.00000 0 -960802.371 11378821.471 22826076.563 10 0 60265 16200.00000 0 -3597680.022 12226220.689 22114423.601 10 0 60265 17100.00000 0 -6058936.726 13223983.160 20974100.989 10 0 60265 18000.00000 0 -8290369.488 14330393.963 19427221.261 10 0 60265 18900.00000 0 -10247260.890 15495583.411 17503758.947 10 0 60265 19800.00000 0 -11895983.206 16663630.457 15240975.214 10 0 60265 20700.00000 0 -13215142.819 17774938.676 12682703.055 10 0 60265 21600.00000 0 -14196218.444 18768785.995 9878505.957 10 0 60265 22500.00000 0 -14843667.484 19585941.856 6882725.408 10 0 60265 23400.00000 0 -15174496.721 20171242.289 3753434.891 10 0 60265 24300.00000 0 -15217315.823 20476014.807 551319.912 10 0 60265 25200.00000 0 -15010913.707 20460250.886 -2661494.702 10 0 60265 26100.00000 0 -14602417.774 20094434.011 -5822647.685 10 0 60265 27000.00000 0 -14045113.717 19360945.418 -8870751.113 10 0 60265 27900.00000 0 -13396017.917 18254987.142 -11746583.431 10 0 60265 28800.00000 0 -12713305.057 16784982.117 -14394242.215 10 0 60265 29700.00000 0 -12053699.794 14972432.959 -16762233.985 10 0 60265 30600.00000 0 -11469942.963 12851243.724 -18804479.507 10 0 60265 31500.00000 0 -11008439.723 10466531.548 -20481214.669 10 0 60265 32400.00000 0 -10707189.434 7872976.451 -21759769.193 10 0 60265 33300.00000 0 -10594085.220 5132776.999 -22615207.731 10 0 60265 34200.00000 0 -10685655.607 2313296.109 -23030820.687 10 0 60265 35100.00000 0 -10986301.977 -515505.717 -22998454.959 10 0 60265 36000.00000 0 -11488064.698 -3283743.460 -22518677.905 10 0 60265 36900.00000 0 -12170928.460 -5924276.135 -21600771.042 10 0 60265 37800.00000 0 -13003654.553 -8375260.058 -20262553.216 10 0 60265 38700.00000 0 -13945105.473 -10582480.844 -18530036.328 10 0 60265 39600.00000 0 -14946006.328 -12501367.184 -16436919.946 10 0 60265 40500.00000 0 -15951068.817 -14098602.804 -14023934.404 10 0 60265 41400.00000 0 -16901388.038 -15353269.801 -11338045.027 10 0 60265 42300.00000 0 -17737010.550 -16257476.238 -8431533.102 10 0 60265 43200.00000 0 -18399564.637 -16816442.705 -5360971.809 10 0 60265 44100.00000 0 -18834840.987 -17048045.468 -2186117.600 10 0 60265 45000.00000 0 -18995213.917 -16981836.865 1031260.596 10 0 60265 45900.00000 0 -18841800.129 -16657585.849 4228590.660 10 0 60265 46800.00000 0 -18346263.200 -16123401.867 7343720.630 10 0 60265 47700.00000 0 -17492187.127 -15433522.851 10316131.404 10 0 60265 48600.00000 0 -16275960.752 -14645862.116 13088114.611 10 0 60265 49500.00000 0 -14707135.687 -13819418.832 15605892.372 10 0 60265 50400.00000 0 -12808242.680 -13011662.086 17820657.175 10 0 60265 51300.00000 0 -10614074.169 -12275999.169 19689512.034 10 0 60265 52200.00000 0 -8170463.027 -11659434.653 21176293.384 10 0 60265 53100.00000 0 -5532608.388 -11200518.331 22252261.720 10 0 60265 54000.00000 0 -2763017.998 -10927667.553 22896647.694 10 0 60265 54900.00000 0 70847.934 -10857933.550 23097044.299 10 0 60265 55800.00000 0 2899134.344 -10996262.617 22849638.566 10 0 60265 56700.00000 0 5652245.393 -11335282.362 22159279.175 10 0 60265 57600.00000 0 8263486.362 -11855621.424 21039379.195 10 0 60265 58500.00000 0 10671585.242 -12526749.002 19511656.045 10 0 60265 59400.00000 0 12822991.010 -13308299.036 17605713.554 10 0 60265 60300.00000 0 14673854.686 -14151823.846 15358473.673 10 0 60265 61200.00000 0 16191612.132 -15002904.174 12813468.172 10 0 60265 62100.00000 0 17356103.915 -15803527.643 10020003.106 10 0 60265 63000.00000 0 18160186.398 -16494636.310 7032211.329 10 0 60265 63900.00000 0 18609809.224 -17018736.597 3908010.573 10 0 60265 64800.00000 0 18723556.360 -17322461.971 707986.591 10 0 60265 65700.00000 0 18531670.214 -17358980.360 -2505777.502 10 0 60265 66600.00000 0 18074599.904 -17090144.353 -5670903.211 10 0 60265 67500.00000 0 17401134.805 -16488292.800 -8725926.654 10 0 60265 68400.00000 0 16566201.961 -15537626.718 -11611492.996 10 0 60265 69300.00000 0 15628420.252 -14235100.123 -14271511.761 10 0 60265 70200.00000 0 14647514.510 -12590786.706 -16654250.251 10 0 60265 71100.00000 0 13681698.821 -10627705.158 -18713343.486 10 0 60265 72000.00000 0 12785139.580 -8381108.744 -20408700.635 10 0 60265 72900.00000 0 12005605.572 -5897267.193 -21707290.045 10 0 60265 73800.00000 0 11382404.461 -3231790.278 -22583787.363 10 0 60265 74700.00000 0 10944693.023 -447561.799 -23021073.882 10 0 60265 75600.00000 0 10710232.699 2387631.006 -23010575.225 10 0 60265 76500.00000 0 10684643.239 5203674.721 -22552433.491 10 0 60265 77400.00000 0 10861186.260 7930806.960 -21655509.220 10 0 60265 78300.00000 0 11221088.060 10502282.540 -20337212.770 10 0 60265 79200.00000 0 11734388.311 12856917.891 -18623168.023 10 0 60265 80100.00000 0 12361278.859 14941407.860 -16546714.598 10 0 60265 81000.00000 0 13053876.012 16712318.548 -14148258.031 10 0 60265 81900.00000 0 13758351.213 18137673.238 -11474480.389 10 0 60265 82800.00000 0 14417329.526 19198065.547 -8577426.842 10 0 60265 83700.00000 0 14972453.895 19887253.881 -5513486.279 10 0 60265 84600.00000 0 15367005.922 20212213.203 -2342286.328 10 0 60265 85500.00000 0 15548471.387 20192643.129 874474.882 10 0 60266 0.00000 0 15470941.184 19859954.507 4074236.341 10 0 60266 900.00000 0 15097245.227 19255778.463 7194798.457 10 0 60266 1800.00000 0 14400728.667 18430062.840 10175535.057 10 0 60266 2700.00000 0 13366594.819 17438837.117 12958574.605 10 0 60266 3600.00000 0 11992757.873 16341741.650 15489923.006 10 0 60266 4500.00000 0 10290169.349 15199426.125 17720507.844 10 0 60266 5400.00000 0 8282604.423 14070927.283 19607123.840 10 0 60266 6300.00000 0 6005916.951 13011136.276 21113261.868 10 0 60266 7200.00000 0 3506794.148 12068461.743 22209806.372 10 0 60266 8100.00000 0 841062.481 11282785.988 22875588.796 10 0 60266 9000.00000 0 -1928385.276 10683798.974 23097787.460 10 0 60266 9900.00000 0 -4733956.459 10289778.845 22872167.224 10 0 60266 10800.00000 0 -7505921.238 10106868.938 22203155.153 10 0 60266 11700.00000 0 -10175066.627 10128880.547 21103751.281 10 0 60266 12600.00000 0 -12675333.098 10337628.963 19595276.444 10 0 60266 13500.00000 0 -14946325.896 10703788.230 17706961.882 10 0 60266 14400.00000 0 -16935598.261 11188228.636 15475388.106 10 0 60266 15300.00000 0 -18600612.948 11743780.936 12943783.150 10 0 60266 16200.00000 0 -19910301.521 12317353.520 10161192.949 10 0 60266 17100.00000 0 -20846157.307 12852313.934 7181538.923 10 0 60266 18000.00000 0 -21402816.930 13291034.885 4062580.241 10 0 60266 18900.00000 0 -21588106.465 13577497.716 864800.109 10 0 60266 19800.00000 0 -21422550.408 13659843.586 -2349762.808 10 0 60266 20700.00000 0 -20938364.065 13492764.398 -5518715.420 10 0 60266 21600.00000 0 -20177971.576 13039631.965 -8580520.447 10 0 60266 22500.00000 0 -19192111.797 12274274.546 -11475692.204 10 0 60266 23400.00000 0 -18037611.634 11182324.549 -14147954.419 10 0 60266 24300.00000 0 -16774920.541 9762079.023 -16545337.235 10 0 60266 25200.00000 0 -15465510.001 8024834.976 -18621191.721 10 0 60266 26100.00000 0 -14169247.549 5994683.569 -20335101.807 10 0 60266 27000.00000 0 -12941856.038 3707769.981 -21653675.620 10 0 60266 27900.00000 0 -11832565.174 1211048.146 -22551200.601 10 0 60266 28800.00000 0 -10882054.318 -1439419.136 -23010149.386 10 0 60266 29700.00000 0 -10120773.228 -4180545.130 -23021526.434 10 0 60266 30600.00000 0 -9567711.484 -6944603.319 -22585048.353 10 0 60266 31500.00000 0 -9229668.420 -9661812.214 -21709154.146 10 0 60266 32400.00000 0 -9101054.270 -12263013.754 -20410844.805 10 0 60266 33300.00000 0 -9164230.781 -14682334.067 -18715355.003 10 0 60266 34200.00000 0 -9390376.710 -16859715.856 -16655662.957 10 0 60266 35100.00000 0 -9740841.309 -18743216.887 -14271847.696 10 0 60266 36000.00000 0 -10168928.138 -20290978.713 -11610306.137 10 0 60266 36900.00000 0 -10622033.150 -21472783.465 -8722845.298 10 0 60266 37800.00000 0 -11044045.791 -22271133.913 -5665667.619 10 0 60266 38700.00000 0 -11377910.582 -22681812.089 -2498269.670 10 0 60266 39600.00000 0 -11568239.727 -22713893.870 717723.531 10 0 60266 40500.00000 0 -11563865.149 -22389220.013 3919765.033 10 0 60266 41400.00000 0 -11320221.000 -21741347.213 7045608.928 10 0 60266 42300.00000 0 -10801455.038 -20814024.736 10034525.079 10 0 60266 43200.00000 0 -9982179.014 -19659262.204 12828481.349 10 0 60266 44100.00000 0 -8848783.705 -18335071.122 15373269.972 10 0 60266 45000.00000 0 -7400262.859 -16902976.207 17619556.077 10 0 60266 45900.00000 0 -5648511.199 -15425401.803 19523828.377 10 0 60266 46800.00000 0 -3618083.720 -13963043.378 21049234.222 10 0 60266 47700.00000 0 -1345426.170 -12572334.166 22166283.738 10 0 60266 48600.00000 0 1122391.570 -11303112.494 22853410.537 10 0 60266 49500.00000 0 3729386.964 -10196586.458 23097379.292 10 0 60266 50400.00000 0 6412750.674 -9283679.886 22893533.337 10 0 60266 51300.00000 0 9105221.149 -8583827.401 22245878.408 10 0 60266 52200.00000 0 11737650.556 -8104267.648 21167001.449 10 0 60266 53100.00000 0 14241656.843 -7839863.080 19677826.310 10 0 60266 54000.00000 0 16552253.302 -7773452.904 17807210.918 10 0 60266 54900.00000 0 18610347.771 -7876723.772 15591393.259 10 0 60266 55800.00000 0 20365008.828 -8111561.386 13073296.188 10 0 60266 56700.00000 0 21775405.679 -8431826.200 10301703.667 10 0 60266 57600.00000 0 22812341.724 -8785478.721 7330323.439 10 0 60266 58500.00000 0 23459318.230 -9116965.117 4216753.452 10 0 60266 59400.00000 0 23713083.919 -9369762.822 1021371.380 10 0 60266 60300.00000 0 23583647.473 -9488978.766 -2193831.824 10 0 60266 61200.00000 0 23093752.243 -9423890.360 -5366451.901 10 0 60266 62100.00000 0 22277834.964 -9130321.457 -8434881.611 10 0 60266 63000.00000 0 21180511.905 -8572752.118 -11339507.780 10 0 60266 63900.00000 0 19854655.766 -7726071.998 -14023871.511 10 0 60266 64800.00000 0 18359143.973 -6576901.937 -16435768.686 10 0 60266 65700.00000 0 16756372.811 -5124426.406 -18528269.018 10 0 60266 66600.00000 0 15109641.862 -3380699.950 -20260633.443 10 0 60266 67500.00000 0 13480518.573 -1370412.848 -21599111.752 10 0 60266 68400.00000 0 11926293.696 869876.058 -22517604.673 10 0 60266 69300.00000 0 10497634.465 3293009.008 -22998177.285 10 0 60266 70200.00000 0 9236534.013 5842949.921 -23031413.560 10 0 60266 71100.00000 0 8174643.069 8456885.437 -22616604.877 10 0 60266 72000.00000 0 7332053.841 11067619.754 -21761768.540 10 0 60266 72900.00000 0 6716586.947 13606164.137 -20483495.593 10 0 60266 73800.00000 0 6323610.992 16004413.579 -18806630.524 10 0 60266 74700.00000 0 6136401.947 18197799.166 -16763788.759 10 0 60266 75600.00000 0 6127026.511 20127805.452 -14394721.055 10 0 60266 76500.00000 0 6257711.501 21744247.664 -11745537.026 10 0 60266 77400.00000 0 6482640.481 23007213.384 -8867803.021 10 0 60266 78300.00000 0 6750100.715 23888587.462 -5817532.187 10 0 60266 79200.00000 0 7004888.440 24373096.486 -2654086.917 10 0 60266 80100.00000 0 7190869.512 24458829.394 560984.199 10 0 60266 81000.00000 0 7253585.789 24157213.135 3765151.409 10 0 60266 81900.00000 0 7142795.827 23492445.368 6896126.478 10 0 60266 82800.00000 0 6814841.364 22500409.252 9893078.321 10 0 60266 83700.00000 0 6234738.756 21227117.187 12697817.320 10 0 60266 84600.00000 0 5377906.379 19726750.185 15255924.880 10 0 60266 85500.00000 0 4231454.752 18059376.277 17517806.227 10 0 60267 0.00000 0 2794984.888 16288444.682 19439646.118 10 0 60267 900.00000 0 1080860.297 14478160.201 20984250.574 10 0 60267 1800.00000 0 -886057.042 12690850.182 22121756.687 10 0 60267 2700.00000 0 -3069198.544 10984430.530 22830201.313 10 0 60267 3600.00000 0 -5421574.344 9410078.121 23095936.110 10 0 60267 4500.00000 0 -7887499.873 8010204.675 22913883.072 10 0 60267 5400.00000 0 -10404692.647 6816815.357 22287626.304 10 0 60267 6300.00000 0 -12906653.207 5850319.112 21229338.852 10 0 60267 7200.00000 0 -15325232.477 5118838.917 19759546.266 10 0 60267 8100.00000 0 -17593280.231 4618049.471 17906731.361 10 0 60267 9000.00000 0 -19647265.879 4331548.062 15706787.350 10 0 60267 9900.00000 0 -21429763.720 4231742.320 13202329.298 10 0 60267 10800.00000 0 -22891700.202 4281217.180 10441876.306 10 0 60267 11700.00000 0 -23994270.210 4434523.427 7478919.360 10 0 60267 12600.00000 0 -24710442.809 4640312.568 4370892.052 10 0 60267 13500.00000 0 -25025993.630 4843728.112 1178063.365 10 0 60267 14400.00000 0 -24940020.561 4988952.429 -2037626.533 10 0 60267 15300.00000 0 -24464920.787 5021801.510 -5213765.184 10 0 60267 16200.00000 0 -23625829.671 4892257.665 -8288678.229 10 0 60267 17100.00000 0 -22459544.486 4556832.512 -11202627.678 10 0 60267 18000.00000 0 -21012977.682 3980659.499 -13898974.485 10 0 60267 18900.00000 0 -19341204.152 3139226.380 -16325282.501 10 0 60267 19800.00000 0 -17505184.104 2019673.071 -18434341.994 10 0 60267 20700.00000 0 -15569256.834 621598.531 -20185092.455 10 0 60267 21600.00000 0 -13598510.350 -1042659.111 -21543426.463 10 0 60267 22500.00000 0 -11656136.964 -2948282.818 -22482858.710 10 0 60267 23400.00000 0 -9800885.609 -5058768.182 -22985046.945 10 0 60267 24300.00000 0 -8084717.478 -7327214.770 -23040154.461 10 0 60267 25200.00000 0 -6550763.045 -9698064.769 -22647046.828 10 0 60267 26100.00000 0 -5231665.818 -12109217.428 -21813318.733 10 0 60267 27000.00000 0 -4148381.912 -14494431.899 -20555150.075 10 0 60267 27900.00000 0 -3309485.309 -16785918.742 -18896993.716 10 0 60267 28800.00000 0 -2711007.363 -18917012.094 -16871100.670 10 0 60267 29700.00000 0 -2336816.505 -20824810.902 -14516891.651 10 0 60267 30600.00000 0 -2159521.201 -22452678.627 -11880187.107 10 0 60267 31500.00000 0 -2141857.029 -23752496.525 -9012310.786 10 0 60267 32400.00000 0 -2238498.052 -24686575.907 -5969084.579 10 0 60267 33300.00000 0 -2398214.635 -25229149.063 -2809734.706 10 0 60267 34200.00000 0 -2566285.038 -25367376.341 404268.694 10 0 60267 35100.00000 0 -2687057.358 -25101827.431 3610415.128 10 0 60267 36000.00000 0 -2706552.079 -24446417.234 6746376.155 10 0 60267 36900.00000 0 -2574993.928 -23427799.842 9751221.929 10 0 60267 37800.00000 0 -2249165.001 -22084247.112 12566607.578 10 0 60267 38700.00000 0 -1694478.968 -20464059.998 15137905.944 10 0 60267 39600.00000 0 -886688.322 -18623580.301 17415264.567 10 0 60267 40500.00000 0 186847.585 -16624886.995 19354566.684 10 0 60267 41400.00000 0 1526387.302 -14533274.058 20918278.253 10 0 60267 42300.00000 0 3119557.486 -12414615.407 22076165.440 10 0 60267 43200.00000 0 4941639.304 -10332726.613 22805869.798 10 0 60267 44100.00000 0 6956379.363 -8346832.722 23093331.124 10 0 60267 45000.00000 0 9117291.863 -6509246.585 22933050.901 10 0 60267 45900.00000 0 11369398.438 -4863353.004 22328192.113 10 0 60267 46800.00000 0 13651334.225 -3441981.057 21290514.107 10 0 60267 47700.00000 0 15897733.574 -2266230.824 19840144.020 10 0 60267 48600.00000 0 18041797.416 -1344801.867 18005189.125 10 0 60267 49500.00000 0 20017936.661 -673850.155 15821197.123 10 0 60267 50400.00000 0 21764382.652 -237378.300 13330474.194 10 0 60267 51300.00000 0 23225656.883 -8141.987 10581273.123 10 0 60267 52200.00000 0 24354797.596 50965.985 7626866.301 10 0 60267 53100.00000 0 25115250.649 -14887.527 4524520.723 10 0 60267 54000.00000 0 25482345.644 -154622.373 1334394.091 10 0 60267 54900.00000 0 25444295.273 -313644.051 -1881627.122 10 0 60267 55800.00000 0 25002675.527 -436393.856 -5061125.386 10 0 60267 56700.00000 0 24172365.967 -468942.265 -8142362.453 10 0 60267 57600.00000 0 22980951.784 -361515.499 -11065478.738 10 0 60267 58500.00000 0 21467611.969 -70847.759 -13773658.157 10 0 60267 59400.00000 0 19681539.490 437741.187 -16214235.438 10 0 60267 60300.00000 0 17679959.065 1188632.072 -18339724.074 10 0 60267 61200.00000 0 15525825.119 2194629.551 -20108744.508 10 0 60267 62100.00000 0 13285295.919 3456178.426 -21486834.223 10 0 60267 63000.00000 0 11025089.309 4961107.350 -22447123.712 10 0 60267 63900.00000 0 8809830.455 6684912.526 -22970864.930 10 0 60267 64800.00000 0 6699502.292 8591571.162 -23047801.699 10 0 60267 65700.00000 0 4747105.018 10634852.128 -22676374.639 10 0 60267 66600.00000 0 2996622.276 12760070.208 -21863756.294 10 0 60267 67500.00000 0 1481378.652 14906211.553 -20625715.475 10 0 60267 68400.00000 0 222856.776 17008342.146 -18986313.057 10 0 60267 69300.00000 0 -769977.100 19000198.853 -16977434.828 10 0 60267 70200.00000 0 -1500811.568 20816854.699 -14638170.218 10 0 60267 71100.00000 0 -1985587.825 22397346.630 -12014048.830 10 0 60267 72000.00000 0 -2251574.812 23687155.241 -9156149.723 10 0 60267 72900.00000 0 -2335962.110 24640432.077 -6120101.056 10 0 60267 73800.00000 0 -2284031.421 25221880.660 -2964990.070 10 0 60267 74700.00000 0 -2146985.474 25408211.947 247794.628 10 0 60267 75600.00000 0 -1979527.672 25189113.043 3455765.087 10 0 60267 76500.00000 0 -1837296.370 24567688.649 6596556.046 10 0 60267 77400.00000 0 -1774263.669 23560357.180 9609142.304 10 0 60267 78300.00000 0 -1840209.828 22196206.569 12435027.087 10 0 60267 79200.00000 0 -2078380.936 20515837.633 15019377.882 10 0 60267 80100.00000 0 -2523429.298 18569744.330 17312087.556 10 0 60267 81000.00000 0 -3199723.750 16416299.489 19268740.436 10 0 60267 81900.00000 0 -4120101.180 14119430.739 20851465.234 10 0 60267 82800.00000 0 -5285111.808 11746083.923 22029659.138 10 0 60267 83700.00000 0 -6682789.905 9363579.560 22780570.149 10 0 60267 84600.00000 0 -8288959.724 7036971.858 23089727.519 10 0 60267 85500.00000 0 -10068064.124 4826519.182 22951213.057 10 0 60268 0.00000 0 -11974481.634 2785370.032 22367768.996 10 0 60268 900.00000 0 -13954278.810 957558.103 21350740.611 10 0 60268 1800.00000 0 -15947323.162 -623609.160 19919855.809 10 0 60268 2700.00000 0 -17889673.093 -1936706.733 18102844.890 10 0 60268 3600.00000 0 -19716143.834 -2972843.535 15934908.066 10 0 60268 4500.00000 0 -21362944.453 -3735784.564 13458040.173 10 0 60268 5400.00000 0 -22770276.666 -4241539.417 10720224.819 10 0 60268 6300.00000 0 -23884787.601 -4517435.224 7774512.642 10 0 60268 7200.00000 0 -24661774.318 -4600713.419 4678000.689 10 0 60268 8100.00000 0 -25067047.906 -4536709.658 1490731.934 10 0 60268 9000.00000 0 -25078378.729 -4376693.708 -1725464.300 10 0 60268 9900.00000 0 -24686461.672 -4175460.568 -4908168.806 10 0 60268 10800.00000 0 -23895360.062 -3988774.709 -7995582.731 10 0 60268 11700.00000 0 -22722408.644 -3870775.741 -10927728.031 10 0 60268 12600.00000 0 -21197578.673 -3871455.655 -13647614.498 10 0 60268 13500.00000 0 -19362330.683 -4034314.975 -16102350.395 10 0 60268 14400.00000 0 -17268002.092 -4394297.810 -18244174.748 10 0 60268 15300.00000 0 -14973796.346 -4976094.103 -20031390.835 10 0 60268 16200.00000 0 -12544457.077 -5792882.059 -21429182.437 10 0 60268 17100.00000 0 -10047723.965 -6845565.177 -22410296.699 10 0 60268 18000.00000 0 -7551676.194 -8122537.534 -22955580.071 10 0 60268 18900.00000 0 -5122074.072 -9599988.723 -23054356.674 10 0 60268 19800.00000 0 -2819809.473 -11242737.068 -22704641.460 10 0 60268 20700.00000 0 -698571.197 -13005557.452 -21913183.724 10 0 60268 21600.00000 0 1197177.604 -14834949.121 -20695339.760 10 0 60268 22500.00000 0 2833825.964 -16671270.115 -19074776.780 10 0 60268 23400.00000 0 4189778.139 -18451149.325 -17083013.502 10 0 60268 24300.00000 0 5256105.251 -20110075.128 -14758806.099 10 0 60268 25200.00000 0 6036659.211 -21585051.916 -12147391.263 10 0 60268 26100.00000 0 6547645.293 -22817212.558 -9299601.244 10 0 60268 27000.00000 0 6816672.757 -23754276.600 -6270868.312 10 0 60268 27900.00000 0 6881325.036 -24352750.294 -3120138.543 10 0 60268 28800.00000 0 6787311.469 -24579775.419 91283.189 10 0 60268 29700.00000 0 6586280.319 -24414548.796 3300933.679 10 0 60268 30600.00000 0 6333387.147 -23849252.615 6446413.053 10 0 60268 31500.00000 0 6084722.821 -22889456.553 9466602.950 10 0 60268 32400.00000 0 5894711.210 -21553975.116 12302856.851 10 0 60268 33300.00000 0 5813587.485 -19874186.693 14900138.985 10 0 60268 34200.00000 0 5885064.226 -17892843.465 17208089.545 10 0 60268 35100.00000 0 6144284.136 -15662422.589 19181995.796 10 0 60268 36000.00000 0 6616145.710 -13243087.999 20783650.859 10 0 60268 36900.00000 0 7314072.245 -10700348.090 21982084.361 10 0 60268 37800.00000 0 8239275.689 -8102506.757 22754151.894 10 0 60268 38700.00000 0 9380546.120 -5518013.327 23084973.030 10 0 60268 39600.00000 0 10714575.634 -3012820.688 22968210.461 10 0 60268 40500.00000 0 12206803.295 -647860.087 22406185.815 10 0 60268 41400.00000 0 13812746.286 1523263.999 21409830.514 10 0 60268 42300.00000 0 15479762.309 3456264.858 19998472.921 10 0 60268 43200.00000 0 17149170.534 5117769.318 18199465.866 10 0 60268 44100.00000 0 18758643.505 6486453.592 16047661.320 10 0 60268 45000.00000 0 20244771.084 7553673.287 13584741.755 10 0 60268 45900.00000 0 21545690.170 8323562.546 10858420.297 10 0 60268 46800.00000 0 22603670.898 8812599.125 7921524.229 10 0 60268 47700.00000 0 23367551.455 9048654.345 4830978.736 10 0 60268 48600.00000 0 23794919.575 9069568.237 1646709.853 10 0 60268 49500.00000 0 23853948.959 8921310.121 -1569512.718 10 0 60268 50400.00000 0 23524812.942 8655802.273 -4755270.759 10 0 60268 51300.00000 0 22800615.157 8328498.667 -7848707.603 10 0 60268 52200.00000 0 21687797.017 7995821.215 -10789729.547 10 0 60268 53100.00000 0 20206003.642 7712562.156 -13521175.008 10 0 60268 54000.00000 0 18387412.547 7529362.861 -15989928.402 10 0 60268 54900.00000 0 16275551.987 7490376.200 -18147956.740 10 0 60268 55800.00000 0 13923657.267 7631212.081 -19953248.407 10 0 60268 56700.00000 0 11392632.778 7977253.865 -21370635.560 10 0 60268 57600.00000 0 8748704.074 8542417.784 -22372483.896 10 0 60268 58500.00000 0 6060857.352 9328408.899 -22939236.062 10 0 60268 59400.00000 0 3398172.631 10324506.146 -23059797.944 10 0 60268 60300.00000 0 827161.365 11507886.775 -22731760.019 10 0 60268 61200.00000 0 -1590780.845 12844477.666 -21961449.183 10 0 60268 62100.00000 0 -3801700.596 14290298.720 -20763809.675 10 0 60268 63000.00000 0 -5761095.476 15793242.646 -19162115.077 10 0 60268 63900.00000 0 -7435521.894 17295216.842 -17187516.630 10 0 60268 64800.00000 0 -8803735.418 18734557.543 -14878436.393 10 0 60268 65700.00000 0 -9857316.725 20048614.658 -12279816.878 10 0 60268 66600.00000 0 -10600757.978 21176398.207 -9442241.859 10 0 60268 67500.00000 0 -11051007.276 22061174.420 -6420945.696 10 0 60268 68400.00000 0 -11236491.826 22652901.553 -3274730.965 10 0 60268 69300.00000 0 -11195662.637 22910402.118 -64816.200 10 0 60268 70200.00000 0 -10975123.811 22803179.447 3146362.976 10 0 60268 71100.00000 0 -10627427.175 22312801.631 6296375.095 10 0 60268 72000.00000 0 -10208626.991 21433794.344 9324011.785 10 0 60268 72900.00000 0 -9775699.500 20174004.986 12170480.007 10 0 60268 73800.00000 0 -9383937.418 18554423.041 14780543.969 10 0 60268 74700.00000 0 -9084430.168 16608464.497 17103594.373 10 0 60268 75600.00000 0 -8921736.567 14380750.674 19094624.493 10 0 60268 76500.00000 0 -8931848.104 11925432.779 20715094.743 10 0 60268 77400.00000 0 -9140528.356 9304132.265 21933669.813 10 0 60268 78300.00000 0 -9562097.948 6583582.640 22726815.200 10 0 60268 79200.00000 0 -10198715.655 3833070.346 23079242.695 10 0 60268 80100.00000 0 -11040185.433 1121780.255 22984197.330 10 0 60268 81000.00000 0 -12064297.244 -1483845.188 22443581.117 10 0 60268 81900.00000 0 -13237687.469 -3922625.006 21467911.870 10 0 60268 82800.00000 0 -14517183.204 -6140933.949 20076118.194 10 0 60268 83700.00000 0 -15851574.770 -8094678.416 18295174.595 10 0 60268 84600.00000 0 -17183743.043 -9750873.560 16159583.354 10 0 60268 85500.00000 0 -18453053.423 -11088757.460 13710712.601 99